Retour au catalogue

DELTA 1 DEB

ActifPO
NORAD 21269·DEBRIS·🇺🇸 United States

Lancé Jun 12, 1975 depuis Vandenberg Space Force Base

Loading…

Prochains Passages (prochaines 24 heures)

TLE

FraisSource: Space-Track

Époque: Sep 14, 2026, 02:44 UTC

1 21269U 75052E   26257.11452515  .00000031  00000-0  16023-3 0  9994
2 21269  99.7049 121.8898 0117853 165.5024 359.6068 13.23751422707286

Suivez DELTA 1 DEB en temps réel avec AllMySat

Download on the App Store